星链-35055(STARLINK-35055)

导读

STARLINK-35055是美国SpaceX公司星链(Starlink)卫星互联网项目中的一颗低轨通信卫星,于2025年9月6日发射入轨。它运行在近地轨道,采用霍尔推进系统与激光通信技术,旨在为全球尤其是偏远地区提供高速低延迟宽带互联网服务。作为星链星座的组成部分,它进一步拓展了星座覆盖范围,助力完善全球卫星通信网络布局,单星设计寿命约5-7年,退役后会主动离轨再入大气层焚毁。

基本信息
目录编号:
65524
目录名称:
STARLINK-35055
国际标识:
2025-200E
轨道中心:
EARTH
卫星名称:
星链-35055
卫星全名:
星链-35055(STARLINK-35055)
卫星状态:
在轨 (已飞行363 天)
发射日期:
2025-09-06 UTC
国别 :
美国 (US)
星等 :
--
轨道信息
数据来源 国际轨道数据
星历时间: 2026-09-03T23:44:23+0800
21小时前
查看轨道信息
半长轴: 6843.679km
偏心率: 0.0000874
轨道倾角: 97.285°
近地点辐角 127.135°
升交点赤经 313.337°
平近点角 232.997°
近地点: 464.943km
远地点: 466.141km
周期: 93.906分钟
每日圈数: 15.334456
详细信息
固有亮度:
5
最大亮度:
2.5
卫星平台:
Starlink V1.0
覆盖范围:
全球
运营商:
太空探索技术公司
运营商所在国:
美国
制造商(研发单位):
太空探索技术公司
制造商所在国:
美国
使用方式:
暂无
卫星简介
Starlink 计划是 SpaceX 推出的全球卫星互联网项目,通过发射低轨道卫星,为全球尤其是偏远地区提供高速、低延迟的互联网服务。自 2019 年起,Starlink 已部署数千颗卫星,旨在缩小全球数字鸿沟,推动互联网普及。该项目还为军事、航空等行业提供通信支持,带来广泛经济效益。
2D轨道图
3D轨道图
轨道高度分析图
轨道倾角分析图
轨道综合分析图
查看轨道综合分析图